CW1334 Weather Reports


Display with metric or nautical units.
time (UTC)temp
F
wind
direction
speed
MPH
gust
MPH
rain 1hr
in
rain 24hr
in
rain mn
in
humidity
%
barometer
mb
20260504201559 53 324 15.0 28.0 0.00 0.00 0.00 34 1014.5
20260504200057 53 321 14.0 24.0 0.00 0.00 0.00 34 1014.3
20260504194555 53 333 16.0 25.0 0.00 0.00 0.00 33 1014.6
20260504193056 53 349 15.0 28.0 0.00 0.00 0.00 35 1014.5
20260504191608 53 305 16.0 28.0 0.00 0.00 0.00 35 1014.5
20260504190107 53 335 19.0 29.0 0.00 0.00 0.00 35 1014.6
20260504184553 53 64 17.0 32.0 0.00 0.00 0.00 35 1014.4
20260504183102 54 323 18.0 28.0 0.00 0.00 0.00 35 1014.3
20260504181558 53 317 17.0 28.0 0.00 0.00 0.00 36 1014.3
20260504180057 53 300 17.0 26.0 0.00 0.00 0.00 38 1014.5
20260504174554 53 328 12.0 25.0 0.00 0.00 0.00 38 1014.5
20260504173053 52 292 14.0 27.0 0.00 0.00 0.00 39 1014.6
20260504171551 52 318 16.0 26.0 0.00 0.00 0.00 42 1014.7
20260504081553 48 17 15.0 21.0 0.00 0.00 0.00 57 1014.3
20260504050105 55 33 18.0 29.0 0.00 0.00 0.00 37 1009.8
20260504044559 57 5 19.0 27.0 0.00 0.00 0.00 38 1009.5
20260504043055 57 27 10.0 16.0 0.00 0.00 0.00 38 1009.0
20260504041557 58 41 9.0 15.0 0.00 0.00 0.00 37 1008.6
20260504040056 58 5 9.0 14.0 0.00 0.00 0.00 36 1008.2
20260504034551 59 28 10.0 15.0 0.00 0.00 0.00 36 1008.1
20260504033052 60 37 9.0 20.0 0.00 0.00 0.00 35 1007.6
20260504031554 61 21 13.0 20.0 0.00 0.00 0.00 34 1007.4
20260504030058 62 29 12.0 18.0 0.00 0.00 0.00 32 1007.1
20260504024607 63 41 11.0 17.0 0.00 0.00 0.00 29 1006.9
20260504023055 65 20 11.0 15.0 0.00 0.00 0.00 26 1006.8
20260504021555 68 360 5.0 10.0 0.00 0.00 0.00 20 1006.6
20260504020051 69 348 6.0 14.0 0.00 0.00 0.00 20 1006.7
20260504014556 70 13 8.0 16.0 0.00 0.00 0.00 19 1006.8
20260504013056 71 355 10.0 17.0 0.00 0.00 0.00 19 1006.7
20260504011553 72 360 10.0 19.0 0.00 0.00 0.00 19 1006.8
20260504004559 73 11 10.0 18.0 0.00 0.00 0.00 19 1006.8
20260504003054 73 360 11.0 19.0 0.00 0.00 0.00 18 1007.1
20260504001552 74 333 10.0 19.0 0.00 0.00 0.00 18 1007.2
20260504000132 73 345 9.0 16.0 0.00 0.00 0.00 18 1007.2
20260503234559 73 323 11.0 21.0 0.00 0.00 0.00 18 1007.2
20260503233052 73 300 11.0 22.0 0.00 0.00 0.00 18 1007.4
20260503231555 73 324 8.0 19.0 0.00 0.00 0.00 18 1007.4
20260503230052 73 297 14.0 23.0 0.00 0.00 0.00 18 1007.5
20260503224555 73 348 14.0 23.0 0.00 0.00 0.00 18 1007.6
20260503223053 74 334 13.0 23.0 0.00 0.00 0.00 18 1007.8
20260503221556 73 294 9.0 21.0 0.00 0.00 0.00 18 1007.9
20260503220054 73 184 11.0 22.0 0.00 0.00 0.00 18 1008.2
20260503214555 72 251 10.0 21.0 0.00 0.00 0.00 19 1008.2
20260503213055 72 265 12.0 18.0 0.00 0.00 0.00 19 1008.3
20260503211615 72 286 15.0 23.0 0.00 0.00 0.00 19 1008.7
20260503210056 72 292 11.0 24.0 0.00 0.00 0.00 19 1008.9
20260503204551 71 296 9.0 20.0 0.00 0.00 0.00 19 1009.0
20260503203110 71 274 11.0 19.0 0.00 0.00 0.00 20 1009.2